SCP
-0 -0 0 -0 0 -0 0 0 0 -0 -0 -0 -0 -0 -0 -0 -0 -0 -0 -0 -0 -0 -0 -0 -0 -0 -0 -0 -0 -0 -0 -0
0 0 -0 0 -0 0 -0 -0 0 -0 -0 0 0 -0 -0 -0 -0 -0 -0 -0 -0 -0 -0 -0 -0 -0 -0 -0 -0 -0 -0 -0
0 0 0 -0 -0 -0 0 0 0 0 0 0 0 -1 -0 -1 -0 -0 -0 -0 0 -0 -0 -0 -0 -0 -0 -0 -0 -0 -0 0
0 0 -0 -0 -0 0 0 0 -0 -0 0 1 -0 -0 -0 -1 -0 -0 -0 -0 0 -0 -0 -0 -0 -0 -0 -0 0 0 0 0
0 0 0 -0 -0 0 0 0 0 0 0 0 0 -0 -1 -1 -0 -0 -0 -0 0 0 -0 -0 0 0 0 0 0 0 0 0
0 0 0 -0 -0 0 0 0 0 0 0 0 0 0 -0 -0 -0 -0 -0 -0 -0 0 0 0 0 0 0 0 0 0 0 0
0 0 0 -0 -0 0 0 0 0 0 0 -0 0 0 0 0 -0 -0 0 -0 -0 -0 -0 0 0 0 0 0 0 0 0 0
0 0 0 0 0 0 0 0 0 0 0 -0 0 -0 0 0 0 0 -0 -0 0 0 -0 -0 0 -0 -0 -0 -0 -0 0 0
0 0 0 0 0 0 0 0 0 1 0 0 0 -0 0 0 0 0 -0 -0 -0 -0 -0 -0 -0 -0 -0 0 -0 -0 0 0
0 0 0 0 -0 -0 0 0 0 0 0 0 0 0 0 0 0 -0 -0 -0 0 0 0 0 0 -0 -0 -0 -0 0 0 0
0 0 0 0 0 -0 0 0 0 0 0 0 0 0 0 0 1 0 -0 0 0 0 0 0 0 0 0 0 0 0 0 0
0 0 0 -0 0 0 0 0 0 0 0 0 0 0 0 0 1 1 0 0 0 0 0 0 0 0 0 0 0 0 0 0
0 0 0 -0 0 0 0 0 0 0 0 0 0 0 0 0 0 0 0 0 0 0 0 0 0 0 0 0 0 0 0 0
0 0 0 0 0 0 0 0 0 0 0 0 0 0 0 0 0 0 0 0 0 0 0 0 0 0 0 0 0 0 0 0
0 0 0 0 0 0 0 0 0 0 0 0 0 0 0 0 0 0 0 0 0 0 0 0 0 0 0 0 0 0 0 0
0 0 0 0 0 0 0 0 0 0 0 0 0 0 0 0 0 0 0 0 0 0 0 0 0 0 0 0 0 0 0 0
0 0 0 0 0 0 0 0 0 0 0 0 0 0 0 0 0 0 0 0 0 0 0 0 0 0 0 0 0 0 0 0
0 -0 0 0 0 0 0 0 0 0 0 0 0 0 0 0 0 0 0 0 0 0 0 0 0 0 0 0 0 0 0 0
0 0 -0 0 0 0 0 0 0 0 0 0 0 0 0 0 0 0 0 0 0 0 0 0 0 0 0 0 0 0 0 0
0 0 0 0 0 0 0 0 0 0 0 0 0 0 0 0 0 0 0 0 0 0 0 0 0 0 0 0 0 0 0 0
Wind_Speed_500mb
9 8 16 7 15 30 78 83 24 31 41 19 31 33 44 54 45 45 46 40 36 34 34 33 30 28 26 24 22 20 17 14
1 20 39 12 43 29 49 61 34 46 20 38 43 49 50 41 35 45 45 41 39 36 33 31 30 28 25 23 21 18 15 13
8 20 31 32 50 81 59 21 53 45 18 28 38 62 46 42 39 41 42 40 39 35 32 29 27 25 23 21 18 15 13 12
9 21 34 31 33 53 30 75 63 57 43 42 55 53 50 57 45 32 35 38 37 34 31 28 26 24 22 19 16 13 10 8
17 30 40 32 22 22 37 46 32 67 29 44 49 44 63 61 41 27 26 30 34 32 30 27 25 22 20 18 15 13 10 8
15 23 36 37 34 37 43 19 73 85 19 42 57 55 61 50 31 16 27 26 24 25 22 21 21 20 18 16 14 12 10 8
19 27 36 50 31 32 32 78 33 22 73 81 68 66 58 45 36 33 41 36 38 32 27 18 16 15 15 15 14 12 10 7
20 36 34 45 53 17 30 39 57 60 70 77 70 71 67 58 52 51 50 47 40 36 29 33 21 19 21 21 18 19 14 15
34 64 51 54 45 38 44 13 66 81 79 75 73 66 69 69 61 60 53 46 40 36 33 29 27 26 21 20 17 9 10 10
51 71 56 37 40 32 15 38 82 87 81 73 66 58 59 57 75 75 67 54 48 38 34 33 29 26 22 16 9 2 4 11
53 68 69 68 16 26 35 76 79 82 77 69 60 54 56 50 65 82 72 68 57 49 52 43 41 35 29 23 15 14 15 10
54 54 67 28 15 21 54 32 78 83 75 67 62 51 46 43 90 89 82 74 65 59 58 47 34 33 28 26 26 23 12 10
32 45 29 36 18 17 57 24 81 77 69 61 53 52 43 70 75 73 66 59 54 47 52 36 35 34 29 31 30 23 13 9
21 15 26 17 24 16 57 46 65 77 69 60 57 60 50 52 54 55 52 50 40 31 38 39 33 32 34 34 28 22 16 10
17 20 12 18 13 21 34 52 57 69 68 56 51 46 53 47 47 49 49 48 43 38 38 39 40 37 40 38 30 21 13 6
17 14 18 20 18 16 36 30 53 72 73 65 61 57 62 55 49 46 45 40 36 43 37 40 45 41 40 37 28 21 15 4
22 30 25 22 18 31 47 20 29 55 67 78 68 63 66 63 61 57 54 49 49 53 48 47 51 48 43 36 26 21 13 5
22 19 28 36 50 23 33 26 43 50 60 76 72 73 78 74 72 70 68 57 54 58 52 46 48 46 39 30 23 19 13 12
27 34 16 13 39 39 34 33 69 51 80 78 79 83 90 88 85 81 78 71 64 65 58 48 50 50 41 33 34 26 22 22
32 13 14 10 12 13 15 16 10 26 71 76 91 86 98 97 95 90 83 76 65 66 64 55 56 58 50 48 45 34 31 27
Wind_Direction_500mb
172 215 230 259 135 157 218 212 205 104 80 76 121 114 137 134 143 148 140 138 136 140 142 144 145 144 141 139 140 141 137 134
160 264 272 240 145 200 260 221 113 102 70 95 117 125 128 136 142 147 138 135 132 134 139 143 147 148 149 150 153 157 159 164
246 267 273 277 170 147 193 168 109 99 108 111 119 129 127 148 134 129 137 137 133 134 135 137 141 145 150 155 162 169 178 188
262 270 266 276 273 149 148 115 105 98 104 117 133 134 142 158 146 134 140 143 141 138 137 137 137 137 139 144 149 156 166 179
280 283 296 288 265 144 136 128 126 130 124 136 144 145 153 158 147 121 137 146 145 143 143 144 143 140 138 136 132 130 130 124
273 282 282 290 319 164 143 141 138 129 150 156 155 152 163 157 145 145 130 137 145 138 137 143 144 141 139 137 134 132 126 124
264 275 281 308 328 178 143 126 139 160 150 150 150 152 157 159 160 157 146 145 146 136 125 136 139 145 145 140 131 124 118 116
243 268 284 300 327 149 119 115 117 125 141 150 156 165 162 168 169 169 159 153 141 130 134 127 107 119 116 124 123 103 97 74
269 276 293 301 312 335 129 113 128 135 146 156 163 172 176 174 175 175 162 152 135 140 123 132 105 107 100 110 99 85 144 149
262 271 284 287 302 320 187 152 143 145 151 159 169 177 175 175 170 168 156 146 145 152 140 135 130 131 133 119 119 150 158 217
251 275 272 277 285 293 310 158 158 155 156 164 172 183 184 165 161 163 153 155 158 156 155 153 144 151 148 160 175 204 238 205
254 231 261 277 268 290 285 209 155 156 161 167 176 183 177 186 153 153 154 162 162 163 168 179 186 192 195 191 193 218 211 163
254 244 249 264 284 266 272 185 150 157 162 171 179 181 165 160 152 157 164 171 169 175 185 189 192 186 193 189 203 205 180 158
257 255 234 205 249 259 269 168 151 158 166 177 185 183 169 160 170 175 179 181 182 202 193 187 190 188 175 176 189 190 176 160
272 257 241 183 229 258 265 163 157 160 169 176 182 177 178 178 178 185 194 195 206 208 199 188 179 181 177 185 186 185 192 141
251 261 259 251 232 246 243 223 167 165 172 182 187 179 179 182 186 193 202 203 216 208 200 185 182 184 177 186 186 192 198 175
226 231 223 264 245 218 236 188 225 174 176 184 188 184 182 185 188 189 195 199 202 200 205 194 187 187 182 187 196 201 218 243
283 268 217 224 232 240 207 223 203 211 189 188 192 185 179 184 189 195 195 201 205 205 210 199 192 192 190 198 196 218 231 257
249 274 267 225 241 241 206 214 225 217 208 199 195 187 182 184 190 193 195 200 206 208 211 202 193 195 190 192 200 216 232 250
240 248 245 157 262 244 188 196 225 214 202 200 202 197 188 188 191 194 199 201 206 209 211 206 198 203 204 205 209 219 227 235
Wind_Speed_850mb
9 8 16 7 15 30 78 83 24 31 41 19 31 33 44 54 45 45 46 40 36 34 34 33 30 28 26 24 22 20 17 14
1 20 39 12 43 29 49 61 34 46 20 38 43 49 50 41 35 45 45 41 39 36 33 31 30 28 25 23 21 18 15 13
8 20 31 32 50 81 59 21 53 45 18 28 38 62 46 42 39 41 42 40 39 35 32 29 27 25 23 21 18 15 13 12
9 21 34 31 33 53 30 75 63 57 43 42 55 53 50 57 45 32 35 38 37 34 31 28 26 24 22 19 16 13 10 8
17 30 40 32 22 22 37 46 32 67 29 44 49 44 63 61 41 27 26 30 34 32 30 27 25 22 20 18 15 13 10 8
15 23 36 37 34 37 43 19 73 85 19 42 57 55 61 50 31 16 27 26 24 25 22 21 21 20 18 16 14 12 10 8
19 27 36 50 31 32 32 78 33 22 73 81 68 66 58 45 36 33 41 36 38 32 27 18 16 15 15 15 14 12 10 7
20 36 34 45 53 17 30 39 57 60 70 77 70 71 67 58 52 51 50 47 40 36 29 33 21 19 21 21 18 19 14 15
34 64 51 54 45 38 44 13 66 81 79 75 73 66 69 69 61 60 53 46 40 36 33 29 27 26 21 20 17 9 10 10
51 71 56 37 40 32 15 38 82 87 81 73 66 58 59 57 75 75 67 54 48 38 34 33 29 26 22 16 9 2 4 11
53 68 69 68 16 26 35 76 79 82 77 69 60 54 56 50 65 82 72 68 57 49 52 43 41 35 29 23 15 14 15 10
54 54 67 28 15 21 54 32 78 83 75 67 62 51 46 43 90 89 82 74 65 59 58 47 34 33 28 26 26 23 12 10
32 45 29 36 18 17 57 24 81 77 69 61 53 52 43 70 75 73 66 59 54 47 52 36 35 34 29 31 30 23 13 9
21 15 26 17 24 16 57 46 65 77 69 60 57 60 50 52 54 55 52 50 40 31 38 39 33 32 34 34 28 22 16 10
17 20 12 18 13 21 34 52 57 69 68 56 51 46 53 47 47 49 49 48 43 38 38 39 40 37 40 38 30 21 13 6
17 14 18 20 18 16 36 30 53 72 73 65 61 57 62 55 49 46 45 40 36 43 37 40 45 41 40 37 28 21 15 4
22 30 25 22 18 31 47 20 29 55 67 78 68 63 66 63 61 57 54 49 49 53 48 47 51 48 43 36 26 21 13 5
22 19 28 36 50 23 33 26 43 50 60 76 72 73 78 74 72 70 68 57 54 58 52 46 48 46 39 30 23 19 13 12
27 34 16 13 39 39 34 33 69 51 80 78 79 83 90 88 85 81 78 71 64 65 58 48 50 50 41 33 34 26 22 22
32 13 14 10 12 13 15 16 10 26 71 76 91 86 98 97 95 90 83 76 65 66 64 55 56 58 50 48 45 34 31 27
Wind_Direction_850mb
172 215 230 259 135 157 218 212 205 104 80 76 121 114 137 134 143 148 140 138 136 140 142 144 145 144 141 139 140 141 137 134
160 264 272 240 145 200 260 221 113 102 70 95 117 125 128 136 142 147 138 135 132 134 139 143 147 148 149 150 153 157 159 164
246 267 273 277 170 147 193 168 109 99 108 111 119 129 127 148 134 129 137 137 133 134 135 137 141 145 150 155 162 169 178 188
262 270 266 276 273 149 148 115 105 98 104 117 133 134 142 158 146 134 140 143 141 138 137 137 137 137 139 144 149 156 166 179
280 283 296 288 265 144 136 128 126 130 124 136 144 145 153 158 147 121 137 146 145 143 143 144 143 140 138 136 132 130 130 124
273 282 282 290 319 164 143 141 138 129 150 156 155 152 163 157 145 145 130 137 145 138 137 143 144 141 139 137 134 132 126 124
264 275 281 308 328 178 143 126 139 160 150 150 150 152 157 159 160 157 146 145 146 136 125 136 139 145 145 140 131 124 118 116
243 268 284 300 327 149 119 115 117 125 141 150 156 165 162 168 169 169 159 153 141 130 134 127 107 119 116 124 123 103 97 74
269 276 293 301 312 335 129 113 128 135 146 156 163 172 176 174 175 175 162 152 135 140 123 132 105 107 100 110 99 85 144 149
262 271 284 287 302 320 187 152 143 145 151 159 169 177 175 175 170 168 156 146 145 152 140 135 130 131 133 119 119 150 158 217
251 275 272 277 285 293 310 158 158 155 156 164 172 183 184 165 161 163 153 155 158 156 155 153 144 151 148 160 175 204 238 205
254 231 261 277 268 290 285 209 155 156 161 167 176 183 177 186 153 153 154 162 162 163 168 179 186 192 195 191 193 218 211 163
254 244 249 264 284 266 272 185 150 157 162 171 179 181 165 160 152 157 164 171 169 175 185 189 192 186 193 189 203 205 180 158
257 255 234 205 249 259 269 168 151 158 166 177 185 183 169 160 170 175 179 181 182 202 193 187 190 188 175 176 189 190 176 160
272 257 241 183 229 258 265 163 157 160 169 176 182 177 178 178 178 185 194 195 206 208 199 188 179 181 177 185 186 185 192 141
251 261 259 251 232 246 243 223 167 165 172 182 187 179 179 182 186 193 202 203 216 208 200 185 182 184 177 186 186 192 198 175
226 231 223 264 245 218 236 188 225 174 176 184 188 184 182 185 188 189 195 199 202 200 205 194 187 187 182 187 196 201 218 243
283 268 217 224 232 240 207 223 203 211 189 188 192 185 179 184 189 195 195 201 205 205 210 199 192 192 190 198 196 218 231 257
249 274 267 225 241 241 206 214 225 217 208 199 195 187 182 184 190 193 195 200 206 208 211 202 193 195 190 192 200 216 232 250
240 248 245 157 262 244 188 196 225 214 202 200 202 197 188 188 191 194 199 201 206 209 211 206 198 203 204 205 209 219 227 235